Location: The Jewett Observatory
(46.7288°N, 117.1525°W)
Time: 20:31:29
(UTC-08:00)

Meteor 1-28 Rocket - Visible Passes

Search period start: 21 January 2018 00:00
Search period end: 31 January 2018 00:00
Orbit: 506 x 523 km, 97.2° (Epoch: 21 January)

Date Brightness Start Highest point End Pass type
(mag) Time Alt. Az. Time Alt. Az. Time Alt. Az.
21 Jan 3.2 17:19:10 10° NNE 17:23:01 79° ESE 17:26:48 10° S visible
21 Jan 6.5 18:55:44 10° NW 18:56:29 10° WNW 18:57:12 10° WNW visible
22 Jan 6.2 18:39:28 10° NNW 18:41:37 15° WNW 18:43:46 10° W visible
23 Jan 5.8 18:23:54 10° NNW 18:26:44 20° WNW 18:29:34 10° WSW visible
24 Jan 5.3 18:08:32 10° N 18:11:50 28° WNW 18:15:06 10° SW visible
25 Jan 4.6 17:53:17 10° N 17:56:53 40° WNW 18:00:26 10° SW visible
26 Jan 3.8 17:38:08 10° N 17:41:55 60° WNW 17:45:38 10° SSW visible
27 Jan 3.2 17:23:04 10° NNE 17:26:54 89° SE 17:30:41 10° SSW visible
28 Jan 6.2 18:43:39 10° NNW 18:45:27 13° WNW 18:47:16 10° W visible
29 Jan 6.0 18:27:56 10° NNW 18:30:34 18° WNW 18:33:12 10° WSW visible
30 Jan 5.5 18:12:31 10° NNW 18:15:40 25° WNW 18:18:48 10° SW visible
